Wind_Speed
12 12 13 13 12 11 11 12 12 12 13 14 16 19 22 26 29 32 35 37 39 41 42 41 42 42 44 46 47 45 45 41 37 34 27 22 22 22 21 21 22 22 23 23
10 10 8 7 7 9 11 15 18 19 18 19 21 23 27 29 32 34 36 38 40 41 41 41 40 42 43 44 44 43 42 39 35 33 25 21 21 21 21 21 21 23 24 25
6 6 6 7 9 11 13 17 21 24 26 26 26 27 29 32 34 35 35 36 36 37 37 38 39 41 42 42 41 41 39 37 35 31 27 25 24 22 21 21 21 22 24 25
8 8 7 8 8 10 12 15 18 21 24 27 28 30 30 32 34 35 34 34 33 34 35 37 38 39 40 40 40 39 37 36 34 32 29 27 27 25 23 23 23 23 24 24
7 7 6 5 5 6 8 10 13 15 17 19 21 24 25 29 31 32 33 33 33 33 34 35 36 37 38 38 39 39 37 36 35 33 32 31 29 28 27 27 26 25 25 24
5 4 4 3 3 5 8 10 10 11 11 12 14 19 20 23 24 27 31 33 33 33 34 34 35 37 38 40 42 41 40 38 37 37 35 34 33 33 32 32 32 31 30 29
3 2 1 1 3 5 8 10 9 9 10 12 15 19 20 22 22 22 22 25 28 31 33 34 36 38 40 43 44 44 44 43 43 42 42 41 40 40 39 39 39 38 37 36
7 4 2 3 6 8 8 11 13 13 13 15 17 20 21 23 24 25 26 27 28 30 31 33 36 40 43 45 46 47 48 49 49 49 48 48 47 46 45 45 44 44 43 43
9 7 5 7 9 11 12 14 16 17 17 18 20 21 22 24 27 29 31 33 33 35 36 39 42 46 48 50 52 53 53 53 53 53 53 53 52 52 52 51 50 50 49 48
11 10 8 9 12 14 16 18 19 19 18 20 22 25 27 29 31 34 36 38 41 43 45 47 49 52 54 56 58 58 59 59 59 59 59 58 57 57 56 56 56 55 55 54
10 10 10 11 12 13 15 17 17 17 18 22 25 28 31 33 36 39 41 43 45 47 49 51 53 55 56 58 60 62 64 65 65 65 65 65 64 63 62 61 60 60 59 59
11 11 12 12 13 14 15 17 18 18 21 24 28 32 35 38 41 43 45 47 49 51 53 55 57 59 61 63 65 67 68 69 70 71 71 69 69 67 66 65 64 64 64 64
10 11 11 11 13 14 17 18 20 21 24 27 31 35 39 42 44 46 48 50 53 55 57 60 62 65 67 69 70 72 73 73 72 71 68 65 63 62 61 61 61 62 62 63
10 11 11 13 15 17 18 19 20 22 25 29 33 37 40 43 45 47 50 53 56 58 61 64 66 69 71 71 71 70 68 65 63 61 58 55 52 50 48 48 49 51 53 56
10 11 12 15 18 19 19 20 22 25 28 32 35 38 41 43 46 48 52 55 58 61 64 67 69 70 69 68 65 62 58 55 51 48 45 43 41 40 39 39 39 40 41 44
10 11 13 15 17 18 18 20 24 27 29 32 34 37 41 44 47 50 54 58 61 64 66 68 68 66 64 61 56 52 48 45 43 41 40 40 40 39 38 36 35 34 34 35
10 11 12 14 17 19 20 23 27 30 32 34 37 41 44 46 49 53 57 61 64 66 66 65 62 60 56 51 47 45 44 43 44 44 44 43 43 41 39 38 36 34 33 32
11 13 15 18 21 23 25 28 31 34 36 38 41 45 48 51 53 56 60 64 65 64 61 58 55 51 48 46 46 47 47 48 48 47 47 47 46 45 43 41 39 37 35 33
16 18 21 24 26 28 30 32 35 38 39 42 45 48 50 54 56 57 61 62 62 60 56 53 51 50 49 49 50 51 51 51 51 50 49 48 47 46 45 43 41 39 37 35
20 21 23 25 28 30 32 34 37 40 41 44 48 51 54 57 61 62 63 62 59 55 53 52 51 51 51 52 53 53 53 53 52 52 51 50 49 47 46 45 43 41 40 38
19 21 23 26 28 31 34 36 38 40 43 47 50 54 57 60 63 64 62 59 55 53 53 52 52 52 53 53 53 53 51 51 51 50 49 48 48 48 47 46 44 42 40 38
20 22 24 28 30 32 34 37 40 43 46 50 53 56 59 60 61 61 59 55 53 53 52 52 52 52 53 53 52 50 49 48 47 46 45 44 43 42 42 42 41 40 39 38
20 22 25 28 30 33 35 39 43 46 48 51 53 56 59 60 60 59 55 53 52 52 52 52 52 52 51 51 50 48 46 46 45 43 41 39 37 36 36 37 37 37 37 36
21 23 25 27 30 33 36 39 42 45 47 50 53 56 58 59 58 56 53 51 51 52 51 51 51 51 49 48 47 45 43 42 40 36 33 32 30 29 29 30 30 31 32 32
22 24 26 27 30 33 35 38 41 44 47 50 52 55 57 58 56 54 52 51 51 51 51 51 52 50 48 48 46 44 41 39 35 31 28 25 23 21 21 21 22 23 26 28
23 25 27 29 31 34 36 39 42 45 48 51 53 55 56 56 55 53 51 50 50 50 50 51 51 49 48 47 45 43 39 36 32 28 24 21 17 14 12 12 15 18 20 22
Wind_Direction
239 235 233 241 243 241 235 235 230 232 236 238 242 246 245 248 254 260 265 270 276 282 286 290 293 295 297 299 300 301 298 298 297 298 286 278 277 279 280 281 282 283 286 283
220 221 233 237 242 247 238 237 232 230 238 240 236 236 239 244 250 256 263 268 274 280 284 288 293 297 297 301 304 302 303 301 303 303 297 290 291 291 285 286 284 282 282 281
214 220 224 237 243 243 239 241 239 235 237 244 248 249 252 255 258 262 264 268 273 278 284 288 293 296 297 300 304 304 306 305 305 308 306 300 295 291 290 288 288 284 281 277
223 228 241 247 245 251 252 254 256 251 247 247 252 259 263 267 268 267 268 269 272 276 282 287 290 292 294 297 300 303 305 306 306 306 303 298 293 292 290 290 286 281 280 277
235 241 259 272 267 274 284 280 278 270 261 256 257 266 272 276 276 271 270 271 272 276 279 282 285 289 292 296 300 302 303 304 304 303 301 298 293 290 287 285 283 279 277 275
274 263 263 298 315 311 313 308 298 289 283 274 273 279 286 293 291 282 275 272 273 276 278 279 282 286 292 296 299 301 302 303 301 299 297 294 290 288 285 282 279 276 273 271
339 323 308 354 333 326 322 322 314 299 296 299 299 301 304 307 307 309 297 288 289 288 284 281 282 287 293 296 299 300 301 300 299 297 294 290 287 284 282 279 277 275 271 268
31 29 1 337 323 325 329 325 323 323 324 321 317 317 319 316 316 320 320 318 310 305 294 290 287 289 292 294 297 298 299 298 296 294 291 288 286 283 280 278 275 273 270 267
12 8 323 313 314 313 315 310 311 312 316 319 323 324 324 320 320 320 319 318 314 310 305 301 298 297 297 298 298 298 297 295 293 291 289 286 284 282 279 277 274 272 269 267
353 349 333 320 312 311 312 308 307 305 310 319 323 326 326 323 321 320 318 316 313 311 309 307 305 305 303 302 301 300 297 295 293 290 288 286 283 280 278 275 273 270 268 266
342 335 327 320 316 314 316 315 314 312 312 317 322 324 324 323 321 320 318 315 313 311 310 309 307 306 304 303 301 300 298 296 294 292 289 287 284 280 277 274 271 269 267 265
334 330 326 323 320 317 314 319 323 323 323 321 321 320 321 321 320 319 318 316 315 314 313 311 309 307 305 304 302 300 298 296 294 292 290 288 286 283 280 276 272 269 266 263
337 334 331 326 320 322 324 329 332 329 324 319 316 318 319 320 319 319 319 318 316 315 313 312 310 308 306 304 302 300 299 297 296 294 292 290 287 284 281 277 273 269 265 262
340 337 335 332 328 332 333 331 326 322 319 317 317 318 319 319 320 319 318 317 316 315 313 312 310 308 305 304 302 301 300 299 297 296 294 292 290 287 284 281 276 271 266 261
340 339 336 332 331 335 334 329 324 322 321 321 321 321 321 321 321 320 319 317 316 315 313 310 308 307 305 304 303 302 300 299 299 297 296 294 292 290 288 286 282 277 271 266
334 334 333 332 333 338 337 331 326 324 324 323 322 322 322 323 322 322 320 318 316 314 312 310 309 308 306 305 304 302 301 299 298 296 294 293 291 290 288 286 283 280 277 272
333 332 333 336 339 339 336 332 329 328 329 329 328 327 326 325 326 325 322 319 318 316 314 312 310 310 309 308 306 303 300 298 295 293 290 288 286 285 284 282 281 279 277 275
347 343 342 342 340 340 338 335 334 333 334 333 331 330 329 329 328 327 323 320 318 316 315 315 314 313 311 308 305 302 300 297 294 291 289 286 283 280 279 277 275 274 273 271
352 349 345 341 339 338 338 338 336 334 335 334 332 331 331 329 328 327 324 322 321 321 320 319 318 315 312 308 305 302 299 297 294 290 287 284 281 278 275 273 271 269 268 268
347 344 337 334 335 337 337 337 337 335 334 334 333 333 332 332 331 331 329 327 326 324 323 321 319 316 313 311 308 305 302 299 295 292 288 284 280 276 272 269 267 265 263 263
337 333 329 330 333 335 337 337 336 335 336 336 335 335 335 335 333 332 331 329 327 327 325 323 321 319 317 315 313 310 306 303 300 296 291 285 280 275 271 267 264 261 259 257
332 328 328 331 333 335 336 336 338 339 339 338 338 337 336 335 334 333 332 331 331 330 328 326 325 323 321 319 317 314 311 308 305 300 295 289 284 277 271 265 260 257 254 252
330 327 328 330 332 333 336 339 341 340 339 339 338 337 336 337 336 336 336 335 335 334 333 332 330 328 326 324 322 319 316 313 309 305 299 293 287 280 272 264 258 253 250 248
325 323 326 329 332 336 339 340 340 339 338 338 338 338 338 339 340 340 339 339 339 339 339 337 336 335 333 331 329 327 325 322 319 315 308 301 293 283 274 264 255 250 245 241
323 324 327 331 334 337 338 339 339 339 339 339 339 340 341 342 343 343 343 343 344 344 344 343 341 341 340 339 337 335 332 331 329 325 319 312 303 290 275 261 249 241 236 231
323 326 329 332 334 335 338 339 340 341 341 341 341 342 343 344 345 345 346 346 347 348 348 348 348 348 347 346 345 343 342 341 338 334 329 325 317 304 282 258 240 228 223 219
Height
5872 5874 5874 5874 5875 5875 5876 5876 5876 5876 5876 5876 5876 5876 5876 5875 5874 5873 5872 5871 5869 5867 5865 5863 5861 5858 5853 5849 5843 5837 5831 5827 5821 5821 5821 5820 5820 5821 5821 5822 5822 5821 5821 5821
5870 5870 5871 5871 5871 5872 5872 5871 5871 5872 5872 5872 5871 5871 5870 5869 5868 5867 5866 5865 5863 5862 5859 5857 5854 5850 5846 5841 5835 5831 5825 5822 5819 5818 5815 5814 5816 5816 5816 5817 5816 5816 5815 5815
5867 5868 5867 5868 5868 5868 5868 5867 5867 5867 5868 5868 5868 5867 5866 5865 5863 5862 5860 5859 5857 5855 5853 5850 5847 5843 5840 5836 5832 5827 5822 5819 5817 5814 5812 5811 5811 5811 5811 5811 5811 5810 5809 5808
5864 5865 5866 5865 5865 5865 5865 5864 5863 5863 5863 5863 5864 5863 5862 5860 5858 5856 5854 5852 5850 5848 5846 5843 5840 5836 5833 5829 5825 5821 5818 5815 5811 5809 5807 5806 5805 5805 5805 5804 5804 5804 5802 5801
5863 5864 5864 5864 5863 5862 5862 5861 5860 5859 5859 5859 5859 5858 5857 5853 5850 5848 5847 5845 5843 5841 5839 5836 5832 5829 5825 5821 5818 5814 5811 5808 5805 5803 5801 5799 5798 5797 5797 5796 5796 5796 5795 5794
5864 5863 5863 5863 5862 5861 5859 5858 5857 5856 5855 5855 5854 5853 5851 5848 5844 5841 5839 5837 5836 5833 5831 5828 5825 5821 5817 5813 5809 5806 5802 5800 5797 5795 5793 5791 5789 5788 5787 5787 5787 5787 5786 5785
5863 5862 5862 5862 5861 5860 5858 5857 5855 5853 5852 5852 5850 5848 5847 5843 5839 5836 5833 5830 5829 5826 5822 5819 5817 5813 5809 5804 5800 5796 5792 5789 5786 5784 5782 5781 5779 5778 5777 5776 5775 5775 5775 5774
5862 5861 5860 5860 5859 5858 5856 5855 5853 5851 5849 5847 5846 5843 5842 5839 5835 5832 5828 5825 5822 5818 5814 5811 5808 5804 5799 5794 5790 5785 5780 5776 5773 5770 5768 5767 5765 5764 5763 5762 5762 5761 5761 5761
5861 5861 5860 5858 5857 5856 5854 5853 5851 5849 5846 5844 5841 5839 5837 5833 5829 5825 5821 5817 5813 5809 5805 5801 5797 5791 5786 5780 5775 5771 5766 5762 5758 5754 5751 5750 5748 5747 5746 5745 5745 5745 5745 5745
5860 5860 5859 5857 5856 5854 5852 5851 5848 5845 5843 5840 5838 5834 5831 5827 5822 5818 5814 5808 5804 5799 5794 5788 5783 5777 5770 5764 5758 5752 5748 5744 5740 5736 5733 5731 5728 5727 5726 5725 5725 5726 5726 5727
5860 5859 5858 5856 5854 5852 5850 5848 5845 5842 5839 5836 5833 5832 5826 5821 5816 5811 5805 5800 5795 5789 5783 5777 5771 5764 5757 5750 5743 5735 5729 5723 5718 5714 5710 5708 5705 5704 5703 5703 5703 5704 5705 5706
5859 5858 5856 5854 5852 5850 5848 5845 5842 5840 5836 5833 5829 5828 5820 5815 5809 5803 5797 5790 5784 5777 5770 5764 5757 5749 5741 5733 5726 5718 5710 5704 5697 5691 5687 5683 5679 5677 5676 5676 5677 5679 5681 5683
5858 5856 5855 5853 5852 5849 5845 5842 5839 5836 5832 5828 5824 5822 5813 5807 5801 5794 5788 5780 5773 5766 5758 5750 5741 5733 5724 5716 5707 5699 5690 5683 5676 5669 5664 5660 5656 5653 5651 5650 5650 5652 5655 5658
5857 5854 5853 5851 5847 5845 5842 5839 5836 5832 5828 5824 5819 5813 5808 5801 5794 5787 5780 5771 5763 5755 5745 5736 5726 5717 5708 5698 5689 5680 5672 5663 5656 5650 5645 5640 5636 5633 5631 5629 5628 5629 5630 5632
5856 5854 5851 5847 5844 5842 5839 5835 5832 5828 5824 5819 5813 5807 5801 5794 5787 5779 5770 5761 5752 5742 5732 5722 5711 5701 5691 5681 5672 5663 5655 5648 5641 5635 5630 5626 5622 5619 5616 5614 5612 5611 5611 5612
5854 5852 5849 5846 5843 5840 5837 5833 5829 5824 5820 5815 5809 5802 5795 5787 5780 5771 5761 5750 5740 5729 5718 5706 5694 5683 5673 5664 5655 5648 5641 5634 5628 5623 5619 5615 5611 5607 5604 5602 5599 5598 5597 5597
5852 5850 5847 5845 5841 5839 5835 5830 5825 5819 5814 5808 5801 5795 5787 5779 5770 5760 5748 5737 5725 5713 5700 5689 5677 5667 5657 5648 5641 5634 5628 5622 5616 5611 5607 5602 5598 5595 5592 5590 5588 5587 5586 5586
5850 5847 5844 5840 5838 5835 5833 5825 5819 5812 5806 5800 5793 5785 5776 5767 5759 5749 5735 5722 5710 5698 5686 5674 5663 5653 5644 5636 5628 5621 5614 5608 5602 5596 5591 5587 5584 5581 5579 5577 5576 5575 5575 5575
5846 5843 5839 5836 5832 5830 5825 5819 5813 5806 5799 5793 5785 5776 5767 5758 5749 5739 5724 5710 5695 5682 5670 5659 5649 5639 5631 5622 5613 5605 5598 5591 5584 5579 5574 5570 5567 5564 5563 5562 5562 5562 5562 5563
5843 5840 5837 5833 5829 5824 5821 5814 5806 5800 5793 5785 5776 5767 5757 5745 5733 5724 5709 5695 5682 5670 5658 5647 5637 5626 5616 5607 5597 5588 5580 5572 5565 5559 5555 5551 5548 5546 5545 5545 5546 5547 5549 5550
5842 5838 5834 5830 5825 5820 5815 5808 5802 5795 5788 5778 5768 5757 5745 5734 5722 5709 5696 5684 5671 5659 5648 5636 5624 5613 5602 5591 5580 5570 5561 5553 5546 5540 5534 5530 5527 5526 5526 5527 5529 5531 5534 5536
5839 5834 5830 5825 5820 5816 5809 5802 5795 5788 5778 5768 5758 5748 5737 5727 5714 5700 5687 5674 5661 5649 5637 5624 5612 5601 5588 5576 5564 5555 5545 5536 5528 5521 5515 5511 5508 5506 5507 5508 5511 5514 5518 5522
5835 5831 5826 5821 5817 5810 5803 5795 5787 5779 5770 5761 5752 5742 5730 5718 5705 5692 5678 5665 5653 5640 5627 5614 5601 5589 5576 5563 5551 5541 5531 5521 5513 5505 5499 5494 5491 5490 5490 5492 5495 5499 5504 5509
5831 5826 5822 5817 5811 5804 5797 5790 5783 5775 5766 5757 5747 5736 5723 5711 5697 5684 5670 5657 5645 5632 5619 5606 5593 5580 5567 5554 5541 5529 5519 5508 5499 5492 5486 5481 5478 5476 5476 5477 5481 5485 5491 5496
5825 5821 5817 5812 5806 5801 5794 5787 5780 5772 5762 5752 5742 5730 5716 5703 5690 5677 5664 5651 5639 5626 5613 5599 5585 5572 5559 5546 5533 5521 5510 5500 5491 5483 5477 5472 5468 5466 5466 5467 5470 5475 5480 5486
5820 5816 5812 5807 5802 5796 5790 5782 5774 5766 5757 5746 5735 5723 5711 5697 5684 5671 5658 5646 5634 5621 5608 5595 5581 5567 5554 5541 5528 5516 5504 5494 5485 5478 5472 5467 5463 5461 5460 5461 5464 5468 5474 5480